Regional Weather Roundup
Issued by NWS

Home | Current Version | Previous Version | Graphics & Text | Print | Product List | Glossary On
Versions: 1 2 3 4 5 6 7 8 9 10 11 12 13 14 15 16 17 18 19 20 21 22 23 24 25 26 27 28 29 30 31 32 33 34 35 36 37 38 39 40 41 42 43 44 45 46 47 48 49 50
000
ASUS43 KLOT 020800
RWRIL

ILLINOIS REGIONAL WEATHER ROUNDUP
NATIONAL WEATHER SERVICE CHICAGO/ROMEOVILLE IL
300 AM CDT WED SEP 02 2015

NOTE: "FAIR" INDICATES FEW OR NO CLOUDS BELOW 12,000 FEET WITH NO
SIGNIFICANT WEATHER AND/OR OBSTRUCTIONS TO VISIBILITY.

* THESE STATIONS ARE NOT UNDER NWS QUALITY CONTROL. THEY ALSO MAY NOT
  REPORT WEATHER SUCH AS PRECIPITATION OR FOG.

ILZ001-002-007-009-015-016-024-020900-
NORTHWEST ILLINOIS

CITY           SKY/WX    TMP DP  RH WIND       PRES   REMARKS
MOLINE         CLEAR     72  67  84 CALM      30.01S
STERLING*      CLEAR    N/A N/A N/A CALM      30.00S
$$

ILZ003-004-008-010-011-017-018-020900-
NORTH CENTRAL ILLINOIS

CITY           SKY/WX    TMP DP  RH WIND       PRES   REMARKS
ROCKFORD       PTCLDY    70  67  90 S6        30.03S
FREEPORT*      CLEAR     71  67  89 SW6       30.03S
$$

ILZ005-006-012>014-019>023-020900-
NORTHEAST ILLINOIS

CITY           SKY/WX    TMP DP  RH WIND       PRES   REMARKS
CHICAGO-OHARE  PTCLDY    74  69  85 SW5       30.02S
CHICAGO-MIDWAY PTCLDY    76  68  76 SW9       30.02S
AURORA         CLEAR     68  66  93 CALM      30.04S FOG
LANSING*       CLEAR     69  66  91 SW3       30.04S
WAUKEGAN       PTCLDY    74  69  85 VRB5      30.00S
DUPAGE AIRPORT CLEAR     71  67  87 SW3       30.03S
WHEELING       PTCLDY    75  68  78 S5        30.03S
NORTHERLY ISL    N/A     76  67  73 SW8         N/A
$$

LMZ740>746-020900-
SOUTHERN LAKE MICHIGAN

STATION/POSITION SKY/WX   TEMP    WIND        PRES    VSBY  WAVE
                          AIR SEA DIR/SP/G                  HT/PER
                          (F)     (DEG/KT/KT) (MB)    (MI)  (FT/S)
SOUTHERN BUOY              72 70  200/ 10/ 12 1015.4F         1/ 4
WILMETTE HARBOR            69 60   30/  6/  6   N/A           1
HARRISON CRIB              74     170/  9/ 12   N/A
BURNHAM HARBOR             76     260/  6/ 10   N/A
CALUMET HARBOR             75     200/  7/  9   N/A
BURNS HARBOR               75     210/ 10/ 12 1017.6S
MICHIGAN CITY              74     180/ 10/ 11   N/A
MICHIGAN CITY 6N           74 72  220/  8/ 10   N/A           1/ 3
ST. JOSEPH                 74 73  230/  6/  8   N/A           1/ 3
$$

ILZ025>027-034>036-040-047-049-050-058-095>099-020900-
WEST-CENTRAL ILLINOIS

CITY           SKY/WX    TMP DP  RH WIND       PRES   REMARKS
QUINCY         CLEAR     73  68  84 S6        30.04S
$$

ILZ028>032-037-038-041>044-048-051>054-059>061-020900-
CENTRAL ILLINOIS

CITY           SKY/WX    TMP DP  RH WIND       PRES   REMARKS
DECATUR        CLEAR     73  68  84 SW6       30.07S
PEORIA         CLEAR     74  68  81 S6        30.04F
SPRINGFIELD    CLEAR     75  70  84 SW7       30.05F
TAYLORVILLE    NOT AVBL
$$

ILZ033-039-045-046-055>057-062-063-020900-
EAST-CENTRAL ILLINOIS

CITY           SKY/WX    TMP DP  RH WIND       PRES   REMARKS
CHAMPAIGN      CLEAR     70  68  93 S5        30.08S FOG
MATTOON        HAZE      72  67  84 SW6       30.07S VSB 3/4
$$

ILZ079-100>102-020900-
SOUTHWEST ILLINOIS

CITY           SKY/WX    TMP DP  RH WIND       PRES   REMARKS
CAHOKIA*       CLEAR     72  68  87 CALM      30.06S
SPARTA*        CLEAR     69  68  98 CALM      30.09R FOG
$$

ILZ064>066-069>071-074>076-080>082-084>086-088>090-092>094-020900-
SOUTH-CENTRAL ILLINOIS

CITY           SKY/WX    TMP DP  RH WIND       PRES   REMARKS
CARBONDALE     CLEAR     68  66  93 CALM      30.08S FOG
MT. VERNON       N/A     66  61  82 CALM      30.09S VSB 3/4
$$

ILZ067-068-072-073-078-083-087-091-020900-
SOUTHEAST ILLINOIS

CITY           SKY/WX    TMP DP  RH WIND       PRES   REMARKS
LAWRENCEVILLE  CLEAR     68  67  96 CALM      30.09R FOG
FLORA*         CLEAR     67  65  94 CALM      30.08F FOG
ROBINSON*      CLEAR     65  64  97 SE3       30.09S FOG
$$

ABBREVIATIONS USED IN REMARKS
   TC - TEMPERATURE IN CELSIUS
  WCI - WIND CHILL INDEX
   HX - HEAT INDEX
  VSB - VISIBILITY
$$



USA.gov is the U.S. government's official web portal to all federal, state and local government web resources and services.